Location: Unspecified
(0.0000°N, 0.0000°E)
Time: 14:03:13
(UTC+00:00)

Vanguard 1 - Pass Details

Date: 28 November 2019
Orbit: 652 x 3831 km, 34.3° (Epoch: 08 December)

Event Time Altitude Azimuth Distance (km) Brightness Sun altitude
Rises 22:48:49 0° 212° (SSW) 5,475 14.3 -64.2°
Reaches altitude 10° 22:54:46 10° 190° (S) 5,124 13.9 -65.0°
Maximum altitude 23:03:06 16° 158° (SSE) 5,414 13.9 -66.0°
Drops below altitude 10° 23:13:30 10° 127° (SE) 6,565 14.2 -67.0°
Sets 23:23:23 0° 107° (ESE) 7,927 14.7 -67.8°
